STARLINK-6092, 56121

Orbit data source: Space-Track

STARLINK-6092, 56121 is a payload satellite owned by SpaceX/Seattle (US) in LEO that was launched on Wed, 29 Mar 2023 UTC via an FALCON 9 launch vehicle from the Air Force Eastern Test Range (AFETR). Payload-class satellites include a variety of spacecraft equipped with specific instruments for various scientific and technological missions. These include communications satellites like Starlink; space stations such as the ISS; scientific satellites like the Hubble; Earth observation satellites from companies like Planet Labs, Umbra, and HawkEye 360; GPS; miniature CubeSats for education and research; and military/defense satellites.

Loading next visibility...
Identifier
56121, 2023-046AE
Orbit
LEO
Country
Flag of USUS
Related business
Manufacturer
SpaceX/Seattle
Mission
Operational Commercial Communications
Bus & Motor
STARLINK, Unknown motor
Mass
305 kg wet, ~290 kg dry
Launch date (UTC)
2023-03-29 (3 years ago)
Launch vehicle
FALCON 9
Launch site
Air Force Eastern Test Range (AFETR)
Object type
Payload
Rocket body
Debris
Shape & HBR
Box + 1 Pan, 10.1 m
Radar Cross Section
11.087 m², Large (>1 m²)

Expand to show TLE details & history
Last TLE update: 2 days ago

TLE from 2 days ago
0 STARLINK-6092
1 56121U 23046AE  26171.38517251  .00000607  00000-0  31609-4 0  9995
2 56121  43.0032 287.2297 0002168 274.9912  85.0692 15.27580226177909
Epoch: 2026-06-20T09:14Z
TLE epoch observation values (Epoch: 2026-06-20T09:14:38.904Z)
Latitude
-0.00005°
Longitude
-120.03301°
Altitude
482.697 km
Speed
7.626 km/s
True Right ascension
19h 08m 55s
True Declination
0° 00' 00"
Sunlit
Object was in full shadow at epoch
Visualization orbit readout
Latitude
Unknown
Longitude
Unknown
Altitude
Unknown
Speed
Unknown
Apparent Right ascension
Unknown
Apparent Declination
Unknown
Sunlit
N/A
Visualization observer readout
Local Sidereal Time
02:14:44
Azimuth
Unknown
Elevation
Unknown
Doppler factor
Unknown
Orbital elements
Apogee altitude
486.481 km
Perigee altitude
483.505 km
Semi-major axis
6,863.13 km
Eccentricity
0.00022
Inclination
43.0032°
RAAN
287.2297°
Arg. of periapsis
274.9912°
True anomaly
85.09395°
Mean anomaly
85.0692°
Eccentric anomaly
85.08158°
Mean motion
3.81733 °/min
Orbital period
94.31 mins
BSTAR
0.000031609
Loading maneuver chart data...
Computing Atmospheric mass density...

Documentation

Showing up to 5 results
|